Location: Antioch Church
(34.9543°N, 88.5145°W)
Time: 02:57:16
(UTC+00:00)

USA 234 - Pass Details

Date: 11 December 2019
Orbit: 1099 x 1108 km, 123.0° (Epoch: 20 January)

Event Time Altitude Azimuth Distance (km) Brightness Sun altitude
Rises 11:10:51 0° 36° (NE) 3,921 6.4 -20.1°
Reaches altitude 10° 11:13:39 10° 26° (NNE) 2,962 5.6 -19.5°
Maximum altitude 11:19:06 29° 329° (NNW) 1,883 4.1 -18.4°
Enters shadow 11:20:52 26° 303° (WNW) 2,022 4.1 -18.1°
